Location: London
(51.5074°N, 0.1278°W)
Time: 22:40:39
(UTC+01:00)

DELFI C3 - Pass Details

Date: 06 October 2020
Orbit: 535 x 549 km, 97.4° (Epoch: 22 October)

Event Time Altitude Azimuth Distance (km) Brightness Sun altitude
Exits shadow 20:56:29 49° 218° (SW) 716 ? -23.8°
Maximum altitude 20:57:10 57° 259° (W) 650 ? -23.9°
Drops below altitude 10° 21:01:05 10° 339° (NNW) 1,834 ? -24.5°
Sets 21:03:16 0° 344° (NNW) 2,734 ? -24.8°
